Russellville, AR

4:09 PM CST on February 24, 2017 (GMT -0600)
Russellville Regional

Weather History for KRUE - April, 2013

Change the Weather History Date:

Friday, April 19, 2013

  Actual Average (KHOT) Record (KHOT)
Temperature  
Mean Temperature 48 °F -  
Max Temperature 59 °F 76 °F 95 °F (1987)
Min Temperature 39 °F 52 °F 33 °F (1953)
Degree Days  
Heating Degree Days 17    
Moisture  
Dew Point 29 °F    
Average Humidity 51    
Maximum Humidity 86    
Minimum Humidity 30    
Precipitation  
Precipitation 0.00 in - - ()
Sea Level Pressure  
Sea Level Pressure 30.07 in    
Wind  
Wind Speed 10 mph (West)    
Max Wind Speed 17 mph    
Max Gust Speed 29 mph    
Visibility 10 miles    
Events      
Averages and records for this station are not official NWS values.
T = Trace of Precipitation, MM = Missing Value Source: NWS Daily Summary

Daily Weather History Graph

Daily Weather History Graph

Search for Another Location

Airport or City:

Trip Planner

Search our weather history database for the weather conditions in past years. The results will help you decide how hot, cold, wet, or windy it might be!

Date:

Astronomy

Apr. 19, 2013 Rise Set
Actual Time 6:34 AM CDT 7:48 PM CDT
Civil Twilight 6:08 AM CDT 8:15 PM CDT
Nautical Twilight 5:36 AM CDT 8:46 PM CDT
Astronomical Twilight 5:04 AM CDT 9:19 PM CDT
Moon 1:46 PM CDT (4/19) 2:36 AM CDT (4/19)
Length of Visible Light 14h 06m
Length of Day
13h 13m
First Quarter, 62% of the Moon is Illuminated
Apr 19
First Quarter
Apr 25
Full
May 2
Last Quarter
May 9
New
May 17
First Quarter

Hourly Weather History & Observations

Time (CDT) Temp. Windchill Dew Point Humidity Pressure Visibility Wind Dir Wind Speed Gust Speed Precip Events Conditions
12:53 AM 46.0 °F 41.4 °F 30.0 °F 54% 29.99 in 10.0 mi WNW 9.2 mph 23.0 mph N/A   Overcast
1:53 AM 45.0 °F 38.9 °F 30.9 °F 58% 29.99 in 10.0 mi WNW 12.7 mph 19.6 mph N/A   Overcast
2:53 AM 44.1 °F 37.4 °F 28.9 °F 55% 29.99 in 10.0 mi West 13.8 mph 28.8 mph N/A   Overcast
3:53 AM 43.0 °F 36.4 °F 25.0 °F 49% 29.99 in 10.0 mi NW 12.7 mph 24.2 mph N/A   Overcast
4:53 AM 42.1 °F 35.2 °F 26.1 °F 53% 30.01 in 10.0 mi WNW 12.7 mph 20.7 mph N/A   Overcast
5:53 AM 42.1 °F 36.6 °F 28.0 °F 58% 30.02 in 10.0 mi West 9.2 mph 16.1 mph N/A   Overcast
6:53 AM 39.9 °F 34.5 °F 28.0 °F 63% 30.06 in 10.0 mi West 8.1 mph - N/A   Partly Cloudy
7:53 AM 42.1 °F 36.1 °F 28.9 °F 60% 30.08 in 10.0 mi West 10.4 mph - N/A   Clear
8:53 AM 44.1 °F 37.7 °F 28.9 °F 55% 30.09 in 10.0 mi WNW 12.7 mph 25.3 mph N/A   Partly Cloudy
9:53 AM 46.0 °F 39.3 °F 28.0 °F 50% 30.09 in 10.0 mi WNW 16.1 mph 23.0 mph N/A   Scattered Clouds
10:53 AM 48.9 °F - 27.0 °F 43% 30.10 in 10.0 mi WNW 17.3 mph 24.2 mph N/A   Partly Cloudy
11:53 AM 50.0 °F - 27.0 °F 41% 30.11 in 10.0 mi West 12.7 mph 23.0 mph N/A   Partly Cloudy
12:53 PM 51.1 °F - 28.0 °F 41% 30.11 in 10.0 mi West 9.2 mph 25.3 mph N/A   Clear
1:53 PM 53.1 °F - 28.0 °F 38% 30.09 in 10.0 mi West 11.5 mph 20.7 mph N/A   Clear
2:53 PM 55.0 °F - 27.0 °F 34% 30.09 in 10.0 mi West 12.7 mph 18.4 mph N/A   Clear
3:53 PM 57.0 °F - 28.0 °F 33% 30.06 in 10.0 mi West 9.2 mph - N/A   Clear
4:53 PM 57.9 °F - 26.1 °F 30% 30.07 in 10.0 mi West 13.8 mph 21.9 mph N/A   Clear
5:53 PM 57.9 °F - 26.1 °F 30% 30.06 in 10.0 mi West 8.1 mph - N/A   Clear
6:53 PM 57.0 °F - 26.1 °F 30% 30.07 in 10.0 mi West 8.1 mph - N/A   Clear
7:53 PM 54.0 °F - 27.0 °F 35% 30.09 in 10.0 mi WSW 3.5 mph - N/A   Clear
8:53 PM 45.0 °F - 36.0 °F 71% 30.11 in 10.0 mi Calm Calm - N/A   Clear
9:53 PM 42.1 °F - 37.0 °F 82% 30.13 in 10.0 mi Calm Calm - N/A   Clear
10:53 PM 42.1 °F - 36.0 °F 79% 30.13 in 10.0 mi Calm Calm - N/A   Clear
11:53 PM 39.9 °F - 36.0 °F 86% 30.13 in 10.0 mi Calm Calm - N/A   Clear